Flight Briefing for CPX420

Departure Arrival
Norman Manley International Airport (MKJP)
Click to view FAA NOTAMS
Miami International Airport (KMIA)
Click to view FAA NOTAMS
Departure Time Arrival Time
N/A N/A
Aircraft Distance
B757-200SF 518nm
Departure METAR Arrival METAR
MKJP 271200Z 01010KT 9999 FEW020 BKN032 BKN070 26/20 Q1012 KMIA 271153Z 06007KT 10SM FEW025 27/20 A3007 RMK AO2 SLP182 T02720200 10272 20261 53011
Suggested Route
UCA UA301 URSUS FLIPR6


View recent IFR Routes data
Notes



Charts and Procedures

Charts for MKJP
No chart available
Charts for KMIA
No chart available

Windy.com Weather Map